This is the latest recevied weather packets stored in our database for station/object IZ1UQG-N2. If no packets are shown the sender has not sent any weather packets the latest 10 day(s).
| Time | Temp. | Humidity | Pressure | Rain* | Wind** | Luminosity | Snow |
|---|---|---|---|---|---|---|---|
| 1777712400 | 17.22° C | 57% | 1024.2 hPa | 0 mm | - | 647 W/m² | - |
| 1777712350 | 17.78° C | 57% | 1024.3 hPa | 0 mm | - | 643 W/m² | - |
| 1777712342 | 17.22° C | 57% | 1024.2 hPa | 0 mm | - | 647 W/m² | - |
| 1777712281 | 17.22° C | 56% | 1024.2 hPa | 0 mm | - | 647 W/m² | - |
| 1777712230 | 17.22° C | 57% | 1024.1 hPa | 0 mm | - | 640 W/m² | - |
| 1777712221 | 17.78° C | 57% | 1024.2 hPa | 0 mm | - | 640 W/m² | - |
| 1777712221 | 17.78° C | 57% | 1024.2 hPa | 0 mm | - | 640 W/m² | - |
| 1777712169 | 17.22° C | 57% | 1024.1 hPa | 0 mm | - | 640 W/m² | - |
| 1777712161 | 17.78° C | 57% | 1024.3 hPa | 0 mm | - | 643 W/m² | - |
| 1777712110 | 17.78° C | 57% | 1024.3 hPa | 0 mm | - | 638 W/m² | - |
| 1777712104 | 17.22° C | 57% | 1024.3 hPa | 0 mm | - | 642 W/m² | - |
| 1777712102 | 17.78° C | 57% | 1024.3 hPa | 0 mm | - | 643 W/m² | - |
| 1777712041 | 17.22° C | 57% | 1024.2 hPa | 0 mm | - | 636 W/m² | - |
| 1777712041 | 17.22° C | 57% | 1024.2 hPa | 0 mm | - | 636 W/m² | - |
| 1777712039 | 17.22° C | 57% | 1024.3 hPa | 0 mm | - | 642 W/m² | - |
| 1777711981 | 17.22° C | 57% | 1024.1 hPa | 0 mm | - | 640 W/m² | - |
| 1777711929 | 17.22° C | 57% | 1024.2 hPa | 0 mm | - | 635 W/m² | - |
| 1777711922 | 17.22° C | 57% | 1024.1 hPa | 0 mm | - | 640 W/m² | - |
| 1777711869 | 17.78° C | 57% | 1024.2 hPa | 0 mm | - | 628 W/m² | - |
| 1777711862 | 17.78° C | 57% | 1024.3 hPa | 0 mm | - | 638 W/m² | - |
| 1777711860 | 17.22° C | 57% | 1024.3 hPa | 0 mm | - | 642 W/m² | - |
| 1777711809 | 17.78° C | 57% | 1024.2 hPa | 0 mm | - | 628 W/m² | - |
| 1777711802 | 17.22° C | 57% | 1024.3 hPa | 0 mm | - | 642 W/m² | - |
| 1777711741 | 17.22° C | 58% | 1024.3 hPa | 0 mm | - | 638 W/m² | - |
| 1777711682 | 17.22° C | 57% | 1024.2 hPa | 0 mm | - | 635 W/m² | - |
* Rain latest hour (hover to see other rain measurements)
** Current wind speed in m/s (hover to see current wind gust speed)